When you browse on this site, cookies collect data to enhance your experience and personalize the content and advertising you see.
Visit our Privacy Policy to learn more. By continuing to use the site, you agree to this use of cookies and data.
  • In Portugal
  • List of Countries
  • For 7 days
  • Water Temperature
  • Weather Map
  • Weather Widgets
  • user-avatar
    Login

    Hourly Weather Idzhewan

    Today, 2 June, Tuesday

    Time Temperature Precipitation Wind Pressure Humidity
    00:00 +18°C° 0 mm 2 mps 690 mmHg 65%
    01:00 +18°C° 0 mm 2 mps 690 mmHg 63%
    02:00 +17°C° 0 mm 2 mps 689 mmHg 62%
    03:00 +17°C° 0 mm 2 mps 689 mmHg 60%
    04:00 +18°C° 0 mm 2 mps 689 mmHg 63%
    05:00 +18°C° 0 mm 2 mps 689 mmHg 65%
    06:00 +19°C° 0 mm 2 mps 689 mmHg 67%
    07:00 +21°C° 0 mm 2 mps 689 mmHg 62%
    08:00 +24°C° 0 mm 1 mps 690 mmHg 57%
    09:00 +26°C° 0 mm 1 mps 690 mmHg 52%
    10:00 +27°C° 0.2 mm 1 mps 690 mmHg 52%
    11:00 +27°C° 0.2 mm 2 mps 689 mmHg 53%
    12:00 +28°C° 0.2 mm 2 mps 689 mmHg 53%
    13:00 +27°C° 0.8 mm 2 mps 689 mmHg 59%
    14:00 +25°C° 0.8 mm 2 mps 688 mmHg 66%
    15:00 +24°C° 0.8 mm 2 mps 688 mmHg 73%
    16:00 +24°C° 0.3 mm 2 mps 688 mmHg 73%
    17:00 +24°C° 0.3 mm 1 mps 688 mmHg 74%
    18:00 +24°C° 0.3 mm 1 mps 688 mmHg 74%
    19:00 +22°C° 0 mm 1 mps 688 mmHg 78%
    20:00 +20°C° 0 mm 2 mps 687 mmHg 81%
    21:00 +18°C° 0 mm 2 mps 687 mmHg 85%
    22:00 +18°C° 0 mm 2 mps 687 mmHg 82%
    23:00 +18°C° 0 mm 2 mps 687 mmHg 80%

    Tomorrow, 3 June, Wednesday

    Time Temperature Precipitation Wind Pressure Humidity
    00:00 +18°C° 0 mm 2 mps 687 mmHg 78%
    01:00 +17°C° 0 mm 2 mps 687 mmHg 77%
    02:00 +17°C° 0 mm 2 mps 687 mmHg 75%
    03:00 +17°C° 0 mm 2 mps 687 mmHg 74%
    04:00 +17°C° 0 mm 3 mps 687 mmHg 72%
    05:00 +18°C° 0 mm 3 mps 688 mmHg 70%
    06:00 +18°C° 0 mm 3 mps 688 mmHg 67%
    07:00 +21°C° 0 mm 2 mps 688 mmHg 61%
    08:00 +24°C° 0 mm 2 mps 688 mmHg 54%
    09:00 +27°C° 0 mm 1 mps 689 mmHg 48%
    10:00 +28°C° 0 mm 2 mps 689 mmHg 46%
    11:00 +29°C° 0 mm 2 mps 689 mmHg 44%
    12:00 +30°C° 0 mm 2 mps 689 mmHg 43%
    13:00 +28°C° 0.2 mm 2 mps 688 mmHg 47%
    14:00 +27°C° 0.2 mm 2 mps 688 mmHg 51%
    15:00 +26°C° 0.2 mm 2 mps 688 mmHg 56%
    16:00 +26°C° 0.1 mm 2 mps 688 mmHg 61%
    17:00 +25°C° 0.1 mm 1 mps 688 mmHg 66%
    18:00 +24°C° 0.1 mm 1 mps 688 mmHg 71%
    19:00 +23°C° 0.1 mm 1 mps 688 mmHg 74%
    20:00 +21°C° 0.1 mm 1 mps 689 mmHg 77%
    21:00 +19°C° 0.1 mm 1 mps 689 mmHg 81%
    22:00 +18°C° 0.3 mm 1 mps 689 mmHg 80%
    23:00 +17°C° 0.3 mm 2 mps 689 mmHg 79%

    Day after tomorrow, 4 June, Thursday

    Time Temperature Precipitation Wind Pressure Humidity
    00:00 +16°C° 0.3 mm 2 mps 690 mmHg 79%
    01:00 +16°C° 0 mm 2 mps 690 mmHg 75%
    02:00 +15°C° 0 mm 2 mps 690 mmHg 70%
    03:00 +15°C° 0 mm 2 mps 690 mmHg 66%
    04:00 +15°C° 0 mm 2 mps 690 mmHg 66%
    05:00 +16°C° 0 mm 2 mps 691 mmHg 66%
    06:00 +17°C° 0 mm 2 mps 691 mmHg 65%
    07:00 +19°C° 0 mm 2 mps 691 mmHg 58%
    08:00 +23°C° 0 mm 1 mps 691 mmHg 51%
    09:00 +25°C° 0 mm 1 mps 692 mmHg 44%
    10:00 +26°C° 0 mm 1 mps 692 mmHg 44%
    11:00 +27°C° 0 mm 2 mps 691 mmHg 45%
    12:00 +28°C° 0 mm 2 mps 691 mmHg 45%
    13:00 +28°C° 0.1 mm 2 mps 691 mmHg 45%
    14:00 +28°C° 0.1 mm 2 mps 691 mmHg 46%
    15:00 +28°C° 0.1 mm 2 mps 691 mmHg 46%
    16:00 +27°C° 0.1 mm 2 mps 691 mmHg 53%
    17:00 +27°C° 0.1 mm 1 mps 691 mmHg 60%
    18:00 +26°C° 0.1 mm 1 mps 691 mmHg 67%
    19:00 +24°C° 0 mm 1 mps 691 mmHg 68%
    20:00 +21°C° 0 mm 2 mps 691 mmHg 69%
    21:00 +19°C° 0 mm 2 mps 692 mmHg 70%
    22:00 +19°C° 0 mm 2 mps 692 mmHg 69%
    23:00 +18°C° 0 mm 2 mps 692 mmHg 68%

    5 June, Friday

    Time Temperature Precipitation Wind Pressure Humidity
    00:00 +18°C° 0 mm 2 mps 692 mmHg 67%
    01:00 +18°C° 0 mm 1 mps 693 mmHg 70%
    02:00 +16°C° 0 mm 1 mps 693 mmHg 72%
    03:00 +15°C° 0 mm 1 mps 693 mmHg 75%
    04:00 +16°C° 0 mm 1 mps 693 mmHg 74%
    05:00 +18°C° 0 mm 1 mps 693 mmHg 73%
    06:00 +19°C° 0 mm 1 mps 694 mmHg 72%
    07:00 +21°C° 0 mm 1 mps 694 mmHg 66%
    08:00 +23°C° 0 mm 1 mps 694 mmHg 59%
    09:00 +25°C° 0 mm 1 mps 694 mmHg 53%
    10:00 +26°C° 0.1 mm 1 mps 694 mmHg 52%
    11:00 +27°C° 0.1 mm 2 mps 694 mmHg 50%
    12:00 +27°C° 0.1 mm 3 mps 694 mmHg 49%
    13:00 +27°C° 0.4 mm 3 mps 694 mmHg 49%
    14:00 +27°C° 0.4 mm 3 mps 693 mmHg 50%
    15:00 +27°C° 0.4 mm 3 mps 693 mmHg 50%
    16:00 +26°C° 0.7 mm 2 mps 693 mmHg 58%
    17:00 +25°C° 0.7 mm 2 mps 693 mmHg 65%
    18:00 +23°C° 0.7 mm 2 mps 693 mmHg 73%
    19:00 +21°C° 0.2 mm 2 mps 694 mmHg 75%
    20:00 +19°C° 0.2 mm 2 mps 694 mmHg 78%
    21:00 +18°C° 0.2 mm 1 mps 694 mmHg 80%
    22:00 +18°C° 0.1 mm 1 mps 694 mmHg 80%
    23:00 +16°C° 0.1 mm 1 mps 695 mmHg 81%

    6 June, Saturday

    Time Temperature Precipitation Wind Pressure Humidity
    00:00 +16°C° 0.1 mm 1 mps 695 mmHg 81%
    01:00 +16°C° 0.1 mm 1 mps 695 mmHg 82%
    02:00 +15°C° 0.1 mm 2 mps 694 mmHg 82%
    03:00 +15°C° 0.1 mm 2 mps 694 mmHg 83%
    04:00 +16°C° 0 mm 1 mps 695 mmHg 82%
    05:00 +18°C° 0 mm 1 mps 695 mmHg 81%
    06:00 +19°C° 0 mm 1 mps 695 mmHg 80%
    07:00 +20°C° 0 mm 1 mps 695 mmHg 75%
    08:00 +21°C° 0 mm 1 mps 695 mmHg 70%
    09:00 +23°C° 0 mm 2 mps 695 mmHg 65%
    10:00 +23°C° 0.2 mm 2 mps 695 mmHg 64%
    11:00 +24°C° 0.2 mm 2 mps 695 mmHg 62%
    12:00 +25°C° 0.2 mm 2 mps 695 mmHg 61%
    13:00 +25°C° 0.3 mm 2 mps 694 mmHg 63%
    14:00 +25°C° 0.3 mm 2 mps 694 mmHg 64%
    15:00 +25°C° 0.3 mm 2 mps 694 mmHg 66%
    16:00 +24°C° 0.2 mm 2 mps 694 mmHg 68%
    17:00 +24°C° 0.2 mm 1 mps 694 mmHg 71%
    18:00 +24°C° 0.2 mm 1 mps 694 mmHg 74%
    19:00 +22°C° 0.2 mm 1 mps 694 mmHg 77%
    20:00 +20°C° 0.2 mm 1 mps 694 mmHg 80%
    21:00 +18°C° 0.2 mm 1 mps 695 mmHg 83%
    22:00 +18°C° 0 mm 1 mps 695 mmHg 83%
    23:00 +18°C° 0 mm 1 mps 695 mmHg 83%

    7 June, Sunday

    Time Temperature Precipitation Wind Pressure Humidity
    00:00 +17°C° 0 mm 2 mps 695 mmHg 83%
    01:00 +16°C° 0 mm 2 mps 695 mmHg 83%
    02:00 +16°C° 0 mm 2 mps 695 mmHg 84%
    03:00 +16°C° 0 mm 2 mps 695 mmHg 84%
    04:00 +18°C° 0 mm 1 mps 695 mmHg 83%
    05:00 +18°C° 0 mm 1 mps 695 mmHg 82%
    06:00 +19°C° 0 mm 1 mps 695 mmHg 80%
    07:00 +21°C° 0 mm 1 mps 695 mmHg 77%
    08:00 +22°C° 0 mm 1 mps 695 mmHg 74%
    09:00 +24°C° 0 mm 1 mps 695 mmHg 70%
    10:00 +25°C° 0 mm 2 mps 695 mmHg 69%
    11:00 +25°C° 0 mm 2 mps 695 mmHg 67%
    12:00 +26°C° 0 mm 2 mps 695 mmHg 65%
    13:00 +27°C° 0.1 mm 2 mps 695 mmHg 65%
    14:00 +27°C° 0.1 mm 2 mps 695 mmHg 65%
    15:00 +27°C° 0.1 mm 2 mps 694 mmHg 64%
    16:00 +27°C° 0.1 mm 2 mps 694 mmHg 69%
    17:00 +26°C° 0.1 mm 2 mps 694 mmHg 74%
    18:00 +25°C° 0.1 mm 1 mps 694 mmHg 78%
    19:00 +24°C° 0.1 mm 1 mps 694 mmHg 81%
    20:00 +22°C° 0.1 mm 1 mps 694 mmHg 84%
    21:00 +20°C° 0.1 mm 1 mps 695 mmHg 86%
    22:00 +20°C° 0 mm 1 mps 695 mmHg 86%
    23:00 +20°C° 0 mm 1 mps 695 mmHg 86%
    Show more